CZ-6A DEB, 56610

Orbit data source: Space-Track

CZ-6A DEB, 56610 is space debris in SSO originally from a launch on Fri, 11 Nov 2022 UTC launched from the Taiyaun Space Center, China (TSC). Debris objects in space refer to the collection of defunct objects orbiting the Earth. Examples of debris include non-operational satellites, rocket bodies, and fragments generated from explosions, collisions, or faulty payload assembly.

Loading next visibility...
Identifier
56610, 2022-151AEJ
Orbit
SSO
Country
Flag of CNCN / PRC
Related business
Manufacturer
SAST
Mission
Spacecraft
Bus & Motor
Unknown
Mass
Unknown
Launch date (UTC)
2022-11-11 (4 years ago)
Launch vehicle
Unknown
Launch site
Taiyaun Space Center, China (TSC)
Object type
Payload
Rocket body
Debris
Shape & HBR
Unknown shape, 0.1 m
Radar Cross Section
Medium (>0.1 m² and <1 m²)

Expand to show TLE details & history
Last TLE update: 1 week ago

TLE from 1 week ago
0 CZ-6A DEB
1 56610U 22151AEJ 26164.74168530  .00000159  00000-0  11637-3 0  9998
2 56610  98.8426 159.7835 0052270 348.4224  11.5740 14.08626043181235
Epoch: 2026-06-13T17:48Z
TLE epoch observation values (Epoch: 2026-06-13T17:48:01.609Z)
Latitude
-0.00004°
Longitude
-9.27562°
Altitude
829.887 km
Speed
7.457 km/s
True Right ascension
10h 39m 08s
True Declination
0° 00' 00"
Sunlit
Object was in daylight at epoch
Visualization orbit readout
Latitude
Unknown
Longitude
Unknown
Altitude
Unknown
Speed
Unknown
Apparent Right ascension
Unknown
Apparent Declination
Unknown
Sunlit
N/A
Visualization observer readout
Local Sidereal Time
21:56:21
Azimuth
Unknown
Elevation
Unknown
Doppler factor
Unknown
Orbital elements
Apogee altitude
899.098 km
Perigee altitude
823.417 km
Semi-major axis
7,239.394 km
Eccentricity
0.00523
Inclination
98.8426°
RAAN
159.7835°
Arg. of periapsis
348.4224°
True anomaly
11.69495°
Mean anomaly
11.574°
Eccentric anomaly
11.6344°
Mean motion
3.52363 °/min
Orbital period
102.17 mins
BSTAR
0.00011637
Loading maneuver chart data...
Computing Atmospheric mass density...
Loading historical data...
Loading historical data...
Loading historical data...
Loading historical data...
Loading historical data...
Loading historical data...
Loading historical data...

Documentation

Showing up to 5 results
|